Weather in Baykal

Russia / Novosibirsk Oblast     55°38′17″N   83°53′14″E
temp.,
°C
wind,
m/s
gust,
m/s
humid.,
%
clouds,
%
prec.,
mm/h
press.,
hPa
HPBL,
m
7 march, sun
sun701:00−3sw71495100 0.9 1008895
04:00−7wsw5148567 1.4 1009585
07:00−10sw5139157 1.5 1012486
10:00−10wsw5109169 0.0 1014424
13:00−7wsw598534 0.0 1017694
16:00−6wsw588345 0.0 1018974
19:00−8sw4108872 0.0 1020325
22:00−12ssw369064 0.0 1021112
8 march, mon
mon801:00−13s348751 0.0 102268
04:00−11sse4882100 0.0 1019157
07:00−8sse61391100 0.0 1016366
10:00−5s71489100 0.0 1012561
13:00−1s71485100 0.0 1009667
16:000ssw71482100 0.0 1006818
19:00−2ssw81681100 0.0 1004917
22:00−2sw81593100 0.4 10051074
9 march, tue
tue901:00−5w61190100 0.8 1010804
04:00−11wsw4109395 0.1 1016372
07:00−13sw5129398 0.1 1020382
10:00−13sw6129097 0.0 1022469
13:00−9sw6128186 0.0 1022670
16:00−7sw7138085 0.0 1022982
19:00−8sw5138287 0.0 1022664
22:00−10ssw5138796 0.0 1022431
10 march, wed
wed1001:00−12ssw4129196 0.0 1022323
04:00−14ssw389469 0.0 1021172
07:00−15s499279 0.0 1020172
10:00−10s499299 0.0 1018288
13:00−4ssw4993100 0.1 1014581
16:00−1ssw5891100 0.1 1012867
19:000s41089100 0.1 1008688
22:00−1sse61586100 0.0 1004564
11 march, thu
thu1101:00+1s71776100 0.0 998864
04:00+1sw81698100 0.8 995979
07:00−1sw101784100 1.8 9991099
10:00−7wsw91687100 0.1 1005874
13:00−5sw81488100 0.1 1009974
16:00−4sw91682100 0.1 10111382
19:00−7sw81583100 0.2 10131176
22:00−9sw81687100 0.1 10161032